Orbital Elements at Epoch 2459000.5 (2020-May-31.0) TDB
Reference: JPL 31 (heliocentric ecliptic J2000)
Element | Value | Uncertainty (1-sigma) | Units |
e | .0629608594488935 | 3.407e-08 | |
a | 2.74424930654885 | 1.0466e-08 | au |
q | 2.571469011666504 | 9.5335e-08 | au |
i | 6.467724978039044 | 3.8166e-06 | deg |
node | 71.56201245319912 | 2.9133e-05 | deg |
peri | 337.3739609481324 | 4.0468e-05 | deg |
M | 324.6591477545911 | 2.7197e-05 | deg |
tp | 2459163.507763602138 (2020-Nov-10.00776360) | 0.00012542 | TDB |
period | 1660.480468588386 4.55 | 9.4988e-06 2.601e-08 | d yr |
n | .2168047181585006 | 1.2402e-09 | deg/d |
Q | 2.917029601431195 | 1.1125e-08 | au |
|
| | Orbit Determination Parameters
Additional Information
|